Stations météo

réclame
Mon MeteoGroup
Biscarosse, France (7503): Température de l'air & dewpoint: 16.06.2018 19:00:00 - 22.06.2018 19:00:00 (CEST)Biscarosse, France (7503): Température de l'air 5cm: 16.06.2018 19:00:00 - 22.06.2018 19:00:00 (CEST)Biscarosse, France (7503): Température de l'air -20cm & Température de l'air -100cm: 16.06.2018 19:00:00 - 22.06.2018 19:00:00 (CEST)Biscarosse, France (7503): Vitesse du vent & gusts: 16.06.2018 19:00:00 - 22.06.2018 19:00:00 (CEST)Biscarosse, France (7503): Direction du vent: 16.06.2018 19:00:00 - 22.06.2018 19:00:00 (CEST)Biscarosse, France (7503): reduced air pressure: 16.06.2018 19:00:00 - 22.06.2018 19:00:00 (CEST)Biscarosse, France (7503): visibility: 16.06.2018 19:00:00 - 22.06.2018 19:00:00 (CEST)Biscarosse, France (7503): Ensoleillement: 16.06.2018 19:00:00 - 22.06.2018 19:00:00 (CEST)Biscarosse, France (7503): Quantités de précipitations: 16.06.2018 19:00:00 - 22.06.2018 19:00:00 (CEST)
Date & Time tt [°C] td [°C] tt 5cm [°C] tt -20cm [°C] tt -100cm [°C] ff [km/h] ff [knt] fx [km/h] fx [knt] dd ppp [hPa] vv [km] sd [min] rr [mm]
22.06.2018 19:00:00 25,9 6,0 30,4 30,7 23,5 14 8 34 18 NE 1020,9 20 60 0,0
22.06.2018 18:00:00 26,5 5,4 32,3 30,1 23,5 14 8 33 18 NE 1021,1 19 60 0,0
22.06.2018 17:00:00 26,4 7,4 32,8 29,3 23,5 13 7 34 18 NE 1021,3 20 60 0,0
22.06.2018 16:00:00 26,1 7,2 33,1 28,5 23,5 11 6 29 16 ENE 1021,6 20 60 0,0
22.06.2018 15:00:00 25,0 8,9 32,2 27,6 23,5 15 8 30 16 ENE 1021,9 20 60 0,0
22.06.2018 14:00:00 24,7 11,3 31,4 26,7 23,5 17 9 32 18 ENE 1022,3 20 60 0,0
22.06.2018 13:00:00 23,3 11,4 29,1 26,1 23,5 16 9 27 15 ENE 1022,6 20 60 0,0
22.06.2018 12:00:00 22,1 11,5 29,1 25,6 23,5 10 6 29 15 ENE 1022,5 20 60 0,0
22.06.2018 11:00:00 21,4 12,5 25,3 25,4 23,5 12 7 26 14 ENE 1022,5 20 60 0,0
22.06.2018 10:00:00 19,8 12,1 21,9 25,4 23,5 13 7 35 19 NE 1022,5 20 60 0,0
22.06.2018 09:00:00 18,1 11,4 20,2 25,7 23,5 21 11 40 22 E 1022,1 20 60 0,0
22.06.2018 08:00:00 17,3 11,6 16,5 26,0 23,4 20 11 43 23 ENE 1021,8 20 28 0,0
22.06.2018 07:00:00 16,9 12,0 16,5 26,3 23,4 22 12 38 20 ENE 1021,6 20 0 0,0
22.06.2018 06:00:00 17,5 12,8 16,7 26,7 23,4 13 7 24 13 NE 1021,4 20 0 0,0
22.06.2018 05:00:00 17,2 15,4 16,1 27,1 23,4 11 6 22 12 NE 1021,3 20 0 0,0
22.06.2018 04:00:00 17,7 17,1 16,6 27,3 23,4 8 4 13 7 NNE 1021,0 20 0 0,0
22.06.2018 03:00:00 18,4 17,7 17,0 27,7 23,4 0 0 4 2 N 1021,0 4,9 0 0,0
22.06.2018 02:00:00 18,9 18,2 18,4 28,0 23,4 3 1 6 3 E 1021,1 0,3 0 0,0
22.06.2018 01:00:00 19,6 18,8 19,0 28,3 23,4 3 2 7 4 SE 1021,1 0,5 0 0,0
22.06.2018 00:00:00 19,6 18,6 19,0 28,7 23,4 5 3 17 9 S 1021,2 2,2 0 0,0
21.06.2018 23:00:00 19,9 18,7 19,3 28,9 23,3 14 7 25 14 SW 1021,1 5 0 0,0
21.06.2018 22:00:00 20,1 18,8 20,0 29,1 23,3 11 6 19 10 SSW 1020,6 4,6 9 0,0
21.06.2018 21:00:00 21,2 18,8 21,6 29,1 23,3 15 8 19 10 SSW 1020,5 7 32 0,0
21.06.2018 20:00:00 22,6 19,2 26,6 29,0 23,3 11 6 17 9 SSW 1020,1 11 60 0,0
21.06.2018 19:00:00 23,0 19,6 25,9 28,7 23,3 13 7 19 10 SSW 1020,0 12 34 0,0
21.06.2018 18:00:00 22,3 19,3 26,2 28,4 23,3 9 5 18 10 SW 1020,5 10 5 0,0
21.06.2018 17:00:00 22,5 19,1 27,3 28,1 23,3 11 6 21 12 SSW 1020,3 16 14 0,0
21.06.2018 16:00:00 23,0 19,0 28,4 27,7 23,3 13 7 19 11 SW 1020,4 17 16 0,0
21.06.2018 15:00:00 22,6 19,6 26,1 27,5 23,2 13 7 18 10 SW 1020,5 14 0 0,0
21.06.2018 14:00:00 21,6 19,0 24,9 27,3 23,2 17 9 23 13 SW 1020,6 14 0 0,0
21.06.2018 13:00:00 21,5 19,2 24,3 27,3 23,2 18 10 23 12 SW 1020,7 15 0 0,0
21.06.2018 12:00:00 21,5 19,4 23,6 27,2 23,2 15 8 22 12 SW 1020,4 13 0 0,0
21.06.2018 11:00:00 20,6 19,3 22,7 27,3 23,2 16 9 22 12 SW 1020,0 10 0 0,0
21.06.2018 10:00:00 20,3 19,3 21,7 27,4 23,1 16 8 19 11 SW 1019,8 7 0 0,0
21.06.2018 09:00:00 20,0 19,3 20,9 27,6 23,1 15 8 25 13 WSW 1019,8 7 0 0,0
21.06.2018 08:00:00 19,8 19,1 19,8 27,9 23,0 18 10 25 13 WSW 1019,7 6 0 0,0
21.06.2018 07:00:00 19,7 19,0 19,8 28,2 23,0 18 10 26 14 WSW 1019,4 6 0 0,0
21.06.2018 06:00:00 20,0 19,3 19,9 28,5 23,0 20 11 25 13 WSW 1018,8 4,0 0 0,0
21.06.2018 05:00:00 20,1 19,4 19,8 28,9 22,9 18 10 21 11 WSW 1018,6 2,7 0 0,0
21.06.2018 04:00:00 20,2 19,4 19,5 29,3 22,9 15 8 20 11 SSW 1018,4 2,5 0 0,0
21.06.2018 03:00:00 20,1 19,3 19,5 29,7 22,8 12 7 17 9 SSW 1018,6 3,8 0 0,0
21.06.2018 02:00:00 20,4 19,4 19,7 30,1 22,8 7 4 11 6 SSW 1018,7 6 0 0,0
21.06.2018 01:00:00 20,6 19,3 19,9 30,5 22,8 6 3 12 6 SSW 1018,8 9 0 0,0
21.06.2018 00:00:00 20,9 19,2 19,9 30,9 22,8 11 6 17 9 W 1018,9 12 0 0,0
20.06.2018 23:00:00 22,9 18,2 21,2 31,3 22,7 9 5 17 9 N 1018,2 20 0 0,0
20.06.2018 22:00:00 23,8 17,5 22,8 31,6 22,7 10 6 21 12 N 1017,4 20 25 0,0
20.06.2018 21:00:00 24,3 19,4 25,1 31,7 22,7 17 9 24 13 N 1017,2 18 60 0,0
20.06.2018 20:00:00 25,6 19,5 28,9 31,5 22,7 15 8 24 13 N 1017,0 17 60 0,0
20.06.2018 19:00:00 25,9 19,5 31,6 31,1 22,7 17 9 28 15 N 1017,1 19 60 0,0
20.06.2018 18:00:00 26,6 19,2 32,8 30,5 22,7 20 11 31 17 N 1017,4 20 60 0,0
20.06.2018 17:00:00 26,1 19,5 33,7 29,8 22,7 19 11 32 17 N 1017,8 20 60 0,0
20.06.2018 16:00:00 26,4 20,0 33,6 28,9 22,7 20 11 27 14 N 1017,9 18 60 0,0
20.06.2018 15:00:00 24,8 19,2 33,7 27,9 22,7 11 6 16 9 NNW 1018,2 16 60 0,0
20.06.2018 14:00:00 23,9 19,4 32,8 27,0 22,6 10 6 14 8 NNW 1018,4 11 60 0,0
20.06.2018 13:00:00 23,7 19,0 32,2 26,2 22,7 8 4 11 6 NW 1018,7 10 60 0,0
20.06.2018 12:00:00 23,2 19,1 31,3 25,5 22,6 8 5 10 5 NNW 1018,8 14 60 0,0
20.06.2018 11:00:00 22,9 18,9 31,4 25,1 22,6 6 3 7 4 NW 1018,7 13 60 0,0
20.06.2018 10:00:00 25,0 19,6 28,8 25,0 22,6 5 3 13 7 W 1018,7 20 60 0,0
20.06.2018 09:00:00 22,4 19,2 24,4 25,1 22,6 5 3 13 7 SE 1018,6 20 60 0,0
20.06.2018 08:00:00 20,5 18,8 18,3 25,3 22,6 3 2 9 5 E 1018,5 20 28 0,0
20.06.2018 07:00:00 19,5 18,2 18,5 25,6 22,5 6 3 15 8 S 1018,3 20 0 0,2
20.06.2018 06:00:00 19,4 18,1 18,6 25,9 22,5 10 5 14 7 E 1018,3 20 0 0,0
20.06.2018 05:00:00 19,5 18,3 18,3 26,3 22,5 8 5 13 7 E 1018,4 20 0 0,0
20.06.2018 04:00:00 19,3 18,1 16,9 26,6 22,5 0 0 7 4 N 1018,7 20 0 0,0
20.06.2018 03:00:00 18,7 17,5 16,8 26,9 22,5 5 3 9 5 NNE 1018,9 20 0 0,0
20.06.2018 02:00:00 18,9 17,6 17,3 27,4 22,5 6 3 8 4 NNE 1019,5 20 0 0,0
20.06.2018 01:00:00 18,9 17,4 17,7 27,7 22,5 4 2 7 4 NNE 1020,1 18 0 0,0
20.06.2018 00:00:00 19,1 17,4 18,2 28,1 22,5 6 3 9 5 N 1020,4 12 0 0,0
19.06.2018 23:00:00 19,5 17,6 18,8 28,4 22,4 6 3 23 12 N 1020,6 10 0 0,0
19.06.2018 22:00:00 20,1 17,7 19,5 28,7 22,5 16 9 23 13 N 1020,4 5 27 0,0
19.06.2018 21:00:00 21,5 17,9 22,2 28,8 22,5 16 9 29 16 N 1020,6 13 56 0,0
19.06.2018 20:00:00 22,1 17,2 24,7 28,7 22,5 23 12 35 19 N 1021,0 19 60 0,0
19.06.2018 19:00:00 22,3 17,2 26,7 28,3 22,5 23 12 32 17 N 1021,4 20 60 0,0
19.06.2018 18:00:00 22,5 17,4 27,1 27,7 22,5 23 12 33 18 N 1021,9 20 58 0,0
19.06.2018 17:00:00 22,4 16,7 29,3 27,0 22,5 27 14 34 18 N 1022,5 20 60 0,0
19.06.2018 16:00:00 22,5 17,0 30,1 26,1 22,5 21 11 28 15 N 1022,9 20 60 0,0
19.06.2018 15:00:00 22,2 16,2 28,1 25,3 22,5 20 11 26 14 N 1023,3 20 52 0,0
19.06.2018 14:00:00 22,6 17,1 25,3 24,6 22,5 19 10 22 12 NNW 1023,8 20 40 0,0
19.06.2018 13:00:00 20,7 15,5 24,1 24,0 22,5 16 9 19 10 NNW 1024,4 20 30 0,0
19.06.2018 12:00:00 20,4 15,2 22,5 23,5 22,5 13 7 15 8 NNW 1024,8 20 30 0,0
19.06.2018 11:00:00 19,3 14,1 24,6 23,1 22,5 11 6 14 7 NNW 1025,2 20 33 0,0
19.06.2018 10:00:00 20,7 14,8 25,1 23,0 22,5 6 3 16 9 NE 1025,6 20 60 0,0
19.06.2018 09:00:00 19,1 15,0 21,5 23,1 22,6 8 5 19 10 ENE 1025,7 20 60 0,0
19.06.2018 08:00:00 17,4 15,4 15,9 23,3 22,5 11 6 18 10 ENE 1025,9 20 29 0,0
19.06.2018 07:00:00 16,0 14,5 15,3 23,6 22,5 10 5 17 9 ENE 1025,8 19 0 0,0
19.06.2018 06:00:00 16,1 14,1 15,7 23,9 22,5 11 6 17 9 E 1025,7 20 0 0,0
19.06.2018 05:00:00 16,5 14,1 16,0 24,2 22,5 9 5 16 9 E 1025,8 20 0 0,0
19.06.2018 04:00:00 16,6 14,1 16,0 24,4 22,5 10 5 17 9 E 1026,0 20 0 0,0
19.06.2018 03:00:00 17,1 14,7 17,0 24,7 22,5 10 5 15 8 ENE 1026,0 20 0 0,0
19.06.2018 02:00:00 17,3 14,9 17,2 25,0 22,5 7 4 12 7 NE 1026,3 20 0 0,0
19.06.2018 01:00:00 17,4 15,0 17,2 25,2 22,5 8 4 12 7 NE 1026,4 20 0 0,0
19.06.2018 00:00:00 17,2 15,2 16,6 25,6 22,5 6 3 9 5 NE 1026,6 20 0 0,0
18.06.2018 23:00:00 17,5 15,1 16,5 25,9 22,5 6 4 22 12 NNE 1026,6 11 0 0,0
18.06.2018 22:00:00 18,5 15,7 17,6 26,1 22,5 16 9 20 11 NNW 1026,1 18 22 0,0
18.06.2018 21:00:00 19,2 15,5 20,0 26,3 22,5 15 8 18 10 WNW 1025,9 20 57 0,0
18.06.2018 20:00:00 20,0 15,0 23,4 26,2 22,5 15 8 18 10 NW 1025,9 20 60 0,0
18.06.2018 19:00:00 19,8 15,0 23,3 26,1 22,5 14 7 19 10 WNW 1026,1 20 56 0,0
18.06.2018 18:00:00 20,5 16,3 24,9 25,9 22,5 11 6 18 10 NNW 1026,2 20 46 0,0
18.06.2018 17:00:00 19,8 16,6 20,6 25,8 22,5 15 8 26 14 N 1026,4 20 0 0,0
18.06.2018 16:00:00 18,6 16,9 20,6 25,7 22,5 21 11 29 16 NNW 1026,6 20 9 0,0
18.06.2018 15:00:00 19,1 17,4 19,7 25,2 22,5 19 10 25 13 NNW 1026,4 11 11 0,2
18.06.2018 14:00:00 20,7 17,7 23,2 24,8 22,4 10 6 15 8 SW 1026,4 20 50 0,0
18.06.2018 13:00:00 19,8 18,6 17,8 24,7 22,5 6 3 27 14 SSW 1026,5 19 6 2,0
18.06.2018 12:00:00 18,2 16,7 18,3 24,8 22,4 19 11 24 13 WSW 1026,5 6 0 0,2
18.06.2018 11:00:00 18,1 16,9 17,9 24,8 22,4 17 9 29 16 W 1026,4 17 0 0,2
18.06.2018 10:00:00 18,5 16,5 18,8 25,0 22,4 21 12 26 14 W 1026,4 7 0 0,0
18.06.2018 09:00:00 18,6 15,8 18,6 25,1 22,4 20 11 26 14 W 1026,3 15 0 0,0
18.06.2018 08:00:00 18,2 15,3 17,3 25,3 22,4 17 9 25 14 W 1026,0 17 0 0,0
18.06.2018 07:00:00 17,3 15,1 16,8 25,7 22,4 11 6 21 11 WSW 1025,9 12 0 0,0
18.06.2018 06:00:00 17,5 14,4 17,1 25,9 22,3 13 7 19 10 WSW 1025,7 18 0 0,0
18.06.2018 05:00:00 17,3 14,0 17,1 26,2 22,3 15 8 26 14 W 1025,7 20 0 0,0
18.06.2018 04:00:00 17,6 13,7 17,3 26,6 22,2 19 11 28 15 W 1025,7 20 0 0,0
18.06.2018 03:00:00 17,6 13,5 17,2 26,9 22,2 20 11 24 13 W 1025,8 20 0 0,0
18.06.2018 02:00:00 17,5 13,2 16,2 27,4 22,2 16 9 23 12 W 1026,2 20 0 0,0
18.06.2018 01:00:00 17,1 12,8 15,5 27,8 22,2 17 9 21 12 W 1026,3 20 0 0,0
18.06.2018 00:00:00 16,9 12,4 15,0 28,2 22,2 14 7 18 10 W 1026,3 20 0 0,0
17.06.2018 23:00:00 17,1 12,0 15,8 28,7 22,2 7 4 17 9 W 1026,3 20 0 0,0
17.06.2018 22:00:00 17,5 11,7 17,0 29,0 22,2 10 5 19 11 NW 1025,8 20 0 0,0
17.06.2018 21:00:00 18,1 11,9 18,7 29,1 22,1 12 6 18 10 NW 1025,8 20 24 0,0
17.06.2018 20:00:00 19,2 11,7 20,9 29,1 22,2 13 7 19 10 NW 1025,6 20 56 0,0
17.06.2018 19:00:00 19,6 11,6 22,0 28,8 22,1 17 9 24 13 NW 1025,3 20 48 0,0
17.06.2018 18:00:00 19,3 12,6 22,4 28,3 22,2 17 9 24 13 NW 1025,3 20 50 0,0
17.06.2018 17:00:00 19,8 12,3 25,3 27,6 22,1 19 10 25 13 WNW 1025,1 20 57 0,0
17.06.2018 16:00:00 20,5 13,2 28,1 26,8 22,1 14 8 22 12 WNW 1025,1 20 60 0,0
17.06.2018 15:00:00 20,3 13,3 25,4 26,0 22,1 19 10 26 14 WNW 1025,0 20 50 0,0
17.06.2018 14:00:00 20,6 14,5 25,7 25,2 22,1 21 11 26 14 NW 1024,8 20 52 0,0
17.06.2018 13:00:00 20,7 14,1 27,1 24,5 22,1 18 10 27 14 NW 1024,6 20 58 0,0
17.06.2018 12:00:00 20,7 14,1 22,7 24,1 22,1 21 11 28 15 W 1024,4 20 35 0,0
17.06.2018 11:00:00 19,9 14,7 24,3 23,9 22,1 16 9 21 11 SW 1024,5 20 15 0,0
17.06.2018 10:00:00 19,1 14,4 20,8 23,9 22,1 10 5 13 7 SSW 1024,3 20 21 0,0
17.06.2018 09:00:00 17,6 14,7 17,8 24,0 22,1 4 2 9 5 SSE 1024,0 20 4 0,0
17.06.2018 08:00:00 16,3 14,5 15,6 24,2 22,1 2 1 4 2 ESE 1023,6 20 0 0,0
17.06.2018 07:00:00 15,9 13,9 15,2 24,5 22,0 3 2 15 8 E 1023,4 19 0 0,0
17.06.2018 06:00:00 16,2 13,1 15,9 24,8 22,0 9 5 28 15 NW 1023,0 20 0 0,0
17.06.2018 05:00:00 16,9 12,6 16,6 25,0 22,0 25 13 31 17 W 1022,5 20 0 0,0
17.06.2018 04:00:00 17,4 12,3 16,7 25,3 22,0 19 11 25 14 WNW 1022,6 20 0 0,0
17.06.2018 03:00:00 17,1 12,4 16,2 25,7 21,9 14 8 19 10 WNW 1022,7 20 0 0,0
17.06.2018 02:00:00 17,1 12,4 15,6 26,1 21,9 14 7 17 9 WNW 1022,8 20 0 0,0
17.06.2018 01:00:00 17,1 12,0 15,9 26,6 21,9 11 6 17 9 WNW 1022,9 20 0 0,0
17.06.2018 00:00:00 17,1 11,8 15,9 26,9 21,9 12 6 16 9 NW 1022,9 20 0 0,0
16.06.2018 23:00:00 17,2 11,7 15,9 27,3 21,9 9 5 16 9 WNW 1022,7 20 0 0,0
16.06.2018 22:00:00 17,1 10,9 16,1 27,6 21,9 12 7 19 10 WNW 1022,2 20 4 0,0
16.06.2018 21:00:00 18,6 9,9 19,0 27,8 21,9 12 7 21 11 NW 1021,6 20 23 0,0
16.06.2018 20:00:00 18,4 11,2 19,7 27,7 22,0 15 8 21 11 NW 1021,5 20 24 0,0
16.06.2018 19:00:00 19,6 11,1 22,1 27,4 22,0 16 9 20 11 NW 1021,2 20 56 0,0

tt = Température de l'air
td = dewpoint
tt 5cm = Température de l'air 5cm
tt -20cm = Température de l'air -20cm
tt -100cm = Température de l'air -100cm
ff = Vitesse du vent
fx = gusts
dd = Direction du vent
ppp = reduced air pressure
vv = visibility
sd = Ensoleillement
rr = Quantités de précipitations

stations d'obs. à proximité